Overview Statistics Trail Chart Weather Telemetry Raw packets
 

This is the latest recevied weather packets stored in our database for station/object N0NB. If no packets are shown the sender has not sent any weather packets the latest 10 day(s).

<< 7 8 9 10 11 12 13 >>
Time Temp. Humidity Pressure Rain* Wind** Luminosity Snow
1788525316 23.33° C 87% 1011.1 hPa 0 mm - 28 W/m² -
1788524716 22.78° C 89% 1010.9 hPa 0 mm - 19 W/m² -
1788524116 22.78° C 89% 1010.8 hPa 0 mm - 13 W/m² -
1788523516 22.22° C 90% 1010.8 hPa 0 mm - 7 W/m² -
1788522916 22.22° C 89% 1010.7 hPa 0 mm - 6 W/m² -
1788522316 22.22° C 89% 1010.8 hPa 0 mm - 0 W/m² -
1788521716 22.78° C 88% 1010.8 hPa 0 mm - 0 W/m² -
1788521116 22.78° C 87% 1010.7 hPa 0 mm - 0 W/m² -
1788520516 22.78° C 88% 1010.7 hPa 0 mm - 0 W/m² -
1788519916 22.78° C 88% 1010.7 hPa 0 mm - 0 W/m² -
1788519316 22.78° C 88% 1010.7 hPa 0 mm - 0 W/m² -
1788518715 22.78° C 88% 1010.7 hPa 0 mm - 0 W/m² -
1788518116 22.78° C 88% 1010.7 hPa 0 mm - 0 W/m² -
1788517515 22.78° C 87% 1010.8 hPa 0 mm - 0 W/m² -
1788516915 22.78° C 87% 1010.9 hPa 0 mm - 0 W/m² -
1788516316 23.33° C 86% 1010.8 hPa 0 mm - 0 W/m² -
1788515715 23.33° C 86% 1010.8 hPa 0 mm - 0 W/m² -
1788515115 23.33° C 85% 1010.7 hPa 0 mm - 0 W/m² -
1788514515 23.33° C 85% 1010.8 hPa 0 mm - 0 W/m² -
1788513915 23.33° C 85% 1010.8 hPa 0 mm - 0 W/m² -
1788513315 23.33° C 84% 1010.7 hPa 0 mm - 0 W/m² -
1788512715 23.89° C 83% 1010.5 hPa 0 mm - 0 W/m² -
1788512115 24.44° C 82% 1010.6 hPa 0 mm - 0 W/m² -
1788511515 24.44° C 82% 1010.7 hPa 0 mm - 0 W/m² -
1788510915 24.44° C 81% 1010.7 hPa 0 mm - 0 W/m² -

* Rain latest hour (hover to see other rain measurements)
** Current wind speed in m/s (hover to see current wind gust speed)